This is the latest recevied weather packets stored in our database for station/object N5JXS. If no packets are shown the sender has not sent any weather packets the latest 10 day(s).
| Time | Temp. | Humidity | Pressure | Rain* | Wind** | Luminosity | Snow |
|---|---|---|---|---|---|---|---|
| 1777928661 | 16.67° C | 27% | 1012.3 hPa | 0 mm | - | 130 W/m² | - |
| 1777928358 | 16.67° C | 27% | 1012.3 hPa | 0 mm | - | 140 W/m² | - |
| 1777928056 | 16.67° C | 27% | 1012.8 hPa | 0 mm | - | 144 W/m² | - |
| 1777927754 | 16.67° C | 27% | 1012.4 hPa | 0 mm | - | 168 W/m² | - |
| 1777927452 | 17.22° C | 27% | 1012.5 hPa | 0 mm | - | 185 W/m² | - |
| 1777927151 | 17.78° C | 26% | 1012.4 hPa | 0 mm | - | 351 W/m² | - |
| 1777926848 | 17.78° C | 26% | 1012.6 hPa | 0 mm | - | 219 W/m² | - |
| 1777926543 | 18.33° C | 25% | 1012.8 hPa | 0 mm | - | 198 W/m² | - |
| 1777926241 | 20° C | 23% | 1012.5 hPa | 0 mm | - | 212 W/m² | - |
| 1777925937 | 20° C | 22% | 1012.5 hPa | 0 mm | - | 599 W/m² | - |
| 1777925634 | 19.44° C | 23% | 1012.5 hPa | 0 mm | - | 405 W/m² | - |
| 1777925332 | 17.78° C | 24% | 1012.8 hPa | 0 mm | - | 758 W/m² | - |
| 1777925028 | 17.22° C | 25% | 1012.8 hPa | 0 mm | - | 570 W/m² | - |
| 1777924725 | 17.22° C | 25% | 1012.8 hPa | 0 mm | - | 419 W/m² | - |
| 1777924420 | 17.22° C | 24% | 1013.1 hPa | 0 mm | - | 223 W/m² | - |
| 1777924118 | 17.22° C | 24% | 1013 hPa | 0 mm | - | 189 W/m² | - |
| 1777923813 | 17.22° C | 25% | 1013 hPa | 0 mm | - | 193 W/m² | - |
| 1777923509 | 17.22° C | 24% | 1012.9 hPa | 0 mm | - | 200 W/m² | - |
| 1777923207 | 17.22° C | 21% | 1012.9 hPa | 0 mm | - | 226 W/m² | - |
| 1777922906 | 17.22° C | 21% | 1013 hPa | 0 mm | - | 153 W/m² | - |
| 1777922603 | 17.22° C | 21% | 1013.3 hPa | 0 mm | - | 143 W/m² | - |
| 1777922302 | 16.67° C | 21% | 1013 hPa | 0 mm | - | 146 W/m² | - |
| 1777921999 | 16.67° C | 20% | 1013.3 hPa | 0 mm | - | 163 W/m² | - |
| 1777921694 | 17.22° C | 21% | 1013.1 hPa | 0 mm | - | 183 W/m² | - |
| 1777921390 | 17.22° C | 20% | 1012.9 hPa | 0 mm | - | 158 W/m² | - |
* Rain latest hour (hover to see other rain measurements)
** Current wind speed in m/s (hover to see current wind gust speed)